Miscellaneous Local Product
Issued by NWS North Platte, NE

Home | Current Version | Previous Version | Text Only | Print | Product List | Glossary On
Versions: 1 2 3 4 5 6 7 8 9 10 11 12 13 14 15 16 17 18 19 20 21 22 23 24 25 26 27 28 29 30 31 32 33 34 35 36 37 38 39 40 41 42 43 44 45 46 47 48 49 50
259
AXUS43 KLBF 241410
MISLBF


WESTERN AND NORTH CENTRAL NEBRASKA HOURLY WEATHER ROUNDUP
NATIONAL WEATHER SERVICE NORTH PLATTE NE
900 AM CDT FRI MAR 24 2017

NOTE: "FAIR" INDICATES FEW OR NO CLOUDS BELOW 12,000 FEET WITH NO
SIGNIFICANT WEATHER AND/OR OBSTRUCTIONS TO VISIBILITY.

NOTE: STATIONS NOT REPORTING VARIABLES SUCH AS SKY/WEATHER OR
PRESSURE ARE PROVIDED BY RAWS AND APRS NETWORKS AND ARE NOT UNDER
NATIONAL WEATHER SERVICE QUALITY CONTROL.

...OBSERVATIONS IN AND NEAR THE EASTERN PANHANDLE OF NEBRASKA...

CITY           SKY/WX    TMP DP  RH WIND       PRES   REMARKS
PINE RIDGE     CLOUDY    39  38  96 N6        30.08R WCI  35
CHADRON        CLOUDY    41  36  82 N8        30.09R
SIDNEY         CLOUDY    39  36  89 N28G36    29.97R WCI  28
CRESCENT LAKE    N/A     39  37  92 N16G24      N/A  WCI  30
$$

...OBSERVATIONS IN NORTHERN NEBRASKA AND FAR SOUTHERN SOUTH DAKOTA...

CITY           SKY/WX    TMP DP  RH WIND       PRES   REMARKS
WINNER         CLOUDY    42  36  79 N18       30.03R
VALENTINE      CLOUDY    41  35  79 N14       30.02R
THEDFORD       DRIZZLE   41  39  93 N15G24    29.98R
AINSWORTH      CLOUDY    38  38  99 N18       30.01R FOG     WCI  29
O`NEILL        LGT RAIN  39  38  97 N20G25    29.95F WCI  30
ORD            CLOUDY    40  36  86 N18       29.91R WCI  31
BROKEN BOW     CLOUDY    40  37  89 N32G41    29.90R WCI  28
VALENTINE NWR    N/A     39  38  97 N16G23      N/A  WCI  30
HALSEY           N/A     39  39  99 N9G18       N/A  WCI  33
BUTTE            N/A     37  35  94 N12G21      N/A  WCI  29
CHAMBERS         N/A     39  38  97 N7          N/A  WCI  34
EWING            N/A     39  38  97 N9G20       N/A  WCI  33
$$

...OBSERVATIONS IN SOUTHWEST NEBRASKA AND FAR NORTHEAST COLORADO...

CITY           SKY/WX    TMP DP  RH WIND       PRES   REMARKS
WRAY           CLOUDY    41  39  93 N38G48    29.81R
HOLYOKE        CLOUDY    43  41  93 N32G39    29.90R
IMPERIAL       CLOUDY    42  38  85 N30G44    29.86R
OGALLALA       CLOUDY    43  40  88 N28G38    29.91S
NORTH PLATTE   LGT RAIN  41  38  89 N24G30    29.92R
MCCOOK         CLOUDY    44  41  89 N35G53    29.76R
LEXINGTON      LGT SNOW  42  39  89 N24G30    29.87R
STAPLETON        N/A     39  38  95 NE3G12      N/A
GOTHENBURG       N/A     42  38  85 N14         N/A
CALLAWAY         N/A     39  38  95 NE20        N/A  WCI  29
$$

...OBSERVATIONS IN CENTRAL LINCOLN COUNTY AREA...

CITY           SKY/WX    TMP DP  RH WIND       PRES   REMARKS
N.P. AIRPORT   LGT RAIN  41  38  89 N24G30    29.92R
N.P. DOWNTOWN    N/A     41  39  92 N12G21      N/A
N.P. SOUTHEAST   N/A     40  38  91 N9G18       N/A  WCI  34
N.P. HILLCREST   N/A     40  38  94 NE22G30     N/A  WCI  30
$$

...SOME OBSERVATIONS FROM AROUND THE REGION...

CITY           SKY/WX    TMP DP  RH WIND       PRES   REMARKS
DENVER         CLOUDY    37  35  92 N30G39    30.00R WCI  24
LIMON          LGT SNOW  32  32 100 N35G45    29.86R FOG     WCI  17
ASPEN          CLOUDY    33  30  88 CALM      30.06R
LARAMIE        CLOUDY    31  28  89 N8        30.12R WCI  23
GILLETTE       SUNNY     36  34  92 W5        30.11R WCI  32
CHEYENNE       CLOUDY    34  31  88 N18       30.07R WCI  23
SCOTTSBLUFF    CLOUDY    42  35  76 N14       30.08R
GRAND ISLAND   LGT RAIN  43  43 100 N20       29.86S FOG
OMAHA          CLOUDY    50  46  86 N15       29.82R FOG
SIOUX FALLS    CLOUDY    39  36  89 N10       29.97R WCI  32
PIERRE         CLOUDY    38  34  85 N9        30.05R WCI  31
RAPID CITY     CLOUDY    41  36  82 W7        30.07R
BISMARCK       SUNNY     32  29  88 NE5       30.11R WCI  27
KANSAS CITY    CLOUDY    68  42  38 S16       29.82R
HILL CITY      CLOUDY    56  55  97 E13       29.72R
WICHITA        MOSUNNY   65  50  58 SE17      29.72R
DODGE CITY     SUNNY     49  41  74 SE14      29.67R
OKLAHOMA CITY  MOSUNNY   64  55  72 S21G29    29.77F
DALLAS         LGT RAIN  69  61  75 S26G37    29.86S
AMARILLO       CLOUDY    50  32  50 SW35G45   29.60R
$$




USA.gov is the U.S. government's official web portal to all federal, state and local government web resources and services.